CW0476 Weather Reports


time (UTC)temp
C
wind
direction
speed
KPH
gust
KPH
rain 1hr
cm
rain 24hr
cm
rain mn
cm
humidity
%
barometer
mb
20260508231014 13 315 0.0 0.0 0.00 0.05 0.05 63 1008.6
20260508223013 13 315 0.0 0.0 0.03 0.05 0.05 56 1009.2
20260508222018 13 315 0.0 0.0 0.03 0.05 0.05 55 1009.1
20260508220019 13 293 0.0 1.6 0.03 0.05 0.05 55 1008.9
20260508215017 13 293 0.0 3.2 0.03 0.03 0.05 54 1008.8
20260508213023 14 315 0.0 9.7 0.00 0.03 0.03 60 1008.7
20260508205018 16 248 8.0 29.0 0.00 0.03 0.03 41 1008.6
20260508204018 17 225 14.5 40.2 0.00 0.03 0.03 39 1008.3
20260508203019 18 203 16.1 32.2 0.00 0.03 0.03 38 1008.3
20260508200016 20 248 14.5 27.4 0.00 0.03 0.03 37 1008.5
20260508195023 19 248 14.5 32.2 0.00 0.03 0.03 38 1008.7
20260508194025 18 225 12.9 33.8 0.00 0.03 0.03 38 1008.8
20260508192014 18 203 14.5 32.2 0.00 0.03 0.03 38 1009.2
20260508184016 19 225 12.9 25.7 0.00 0.03 0.03 39 1009.6
20260508183015 20 225 16.1 24.1 0.00 0.03 0.03 38 1009.6
20260508181018 19 248 22.5 35.4 0.00 0.03 0.03 37 1009.9
20260508180013 20 225 19.3 32.2 0.00 0.03 0.03 37 1009.9
20260508175015 22 225 12.9 27.4 0.00 0.03 0.03 36 1010.1
20260508173024 24 248 3.2 22.5 0.00 0.03 0.03 34 1010.5
20260508172023 25 248 3.2 12.9 0.00 0.03 0.03 35 1010.8
20260508171013 21 270 0.0 16.1 0.00 0.03 0.03 42 1011.1
20260508170024 21 248 1.6 14.5 0.00 0.03 0.03 39 1011.4
20260508164019 23 270 3.2 14.5 0.00 0.03 0.03 41 1012.0
20260508163014 22 270 0.0 12.9 0.00 0.03 0.03 39 1012.2
20260508162023 22 248 4.8 16.1 0.00 0.03 0.03 36 1012.2
20260508161017 20 270 0.0 11.3 0.00 0.03 0.03 40 1012.2
20260508155022 16 248 0.0 25.7 0.00 0.03 0.03 46 1012.2
20260508154019 15 248 8.0 25.7 0.00 0.03 0.03 46 1012.3
20260508153014 15 248 8.0 22.5 0.00 0.03 0.03 43 1012.2
20260508152015 15 248 9.7 19.3 0.00 0.03 0.03 43 1012.4
20260508151013 14 225 4.8 16.1 0.00 0.03 0.03 46 1012.3
20260508150022 13 248 9.7 16.1 0.00 0.03 0.03 53 1012.4
20260508145017 13 225 8.0 11.3 0.00 0.03 0.03 52 1012.2
20260508144017 12 225 4.8 12.9 0.00 0.03 0.03 53 1012.4
20260508143025 11 225 3.2 11.3 0.00 0.03 0.03 47 1012.5
20260508135019 10 248 1.6 14.5 0.00 0.03 0.03 48 1012.4
20260508134018 10 225 0.0 14.5 0.00 0.03 0.03 48 1012.4
20260508130013 10 248 9.7 14.5 0.00 0.03 0.03 47 1012.4
20260508124019 10 225 8.0 16.1 0.00 0.03 0.03 49 1012.3
20260508123016 10 225 9.7 19.3 0.00 0.03 0.03 52 1012.4
20260508121018 10 248 8.0 16.1 0.00 0.03 0.03 53 1012.0
20260508120016 10 203 3.2 19.3 0.00 0.03 0.03 53 1012.0
20260508115019 9 225 9.7 14.5 0.00 0.03 0.03 49 1012.1
20260508114025 9 248 11.3 12.9 0.00 0.03 0.03 49 1011.8
20260508112015 8 225 3.2 14.5 0.00 0.03 0.03 49 1011.7
20260508111022 8 225 3.2 11.3 0.00 0.03 0.03 50 1011.6
20260508110016 8 225 4.8 11.3 0.00 0.03 0.03 51 1011.5
20260508104014 7 225 4.8 11.3 0.00 0.03 0.03 50 1011.5
20260508102023 7 248 3.2 11.3 0.00 0.03 0.03 51 1011.5
20260508095023 7 248 1.6 14.5 0.00 0.03 0.03 51 1011.6
20260508093025 7 225 4.8 14.5 0.00 0.03 0.03 50 1011.4
20260508084022 7 225 9.7 14.5 0.00 0.03 0.03 50 1011.5
20260508075019 7 248 0.0 9.7 0.00 0.03 0.03 53 1011.7
20260508074012 7 225 1.6 9.7 0.00 0.03 0.03 53 1011.9
20260508073022 7 225 4.8 9.7 0.00 0.03 0.03 54 1012.0
20260508070015 5 180 0.0 0.0 0.00 0.03 0.03 62 1012.1
20260508065022 4 180 0.0 0.0 0.00 0.03 0.03 78 1012.1
20260508064016 5 180 0.0 0.0 0.00 0.03 0.03 77 1012.2
20260508063021 5 180 0.0 0.0 0.00 0.03 0.03 63 1012.4
20260508062019 6 180 0.0 0.0 0.00 0.03 0.03 72 1012.3
20260508054020 7 248 3.2 9.7 0.03 0.03 0.03 73 1012.5
20260508053016 7 135 0.0 0.0 0.03 0.03 0.03 78 1012.4
20260508052018 7 90 0.0 0.0 0.03 0.03 0.03 77 1012.7
20260508050015 8 0 3.2 11.3 0.00 0.00 0.00 73 1013.6
20260508042014 8 180 0.0 0.0 0.00 0.00 0.00 71 1012.1
20260508041013 7 180 0.0 0.0 0.00 0.00 0.00 73 1012.2
20260508035015 7 270 0.0 0.0 0.00 0.00 0.00 77 1012.4
20260508034016 7 270 0.0 0.0 0.00 0.00 0.00 77 1012.6
20260508032018 7 270 0.0 0.0 0.00 0.00 0.00 76 1012.6
20260508031020 7 270 0.0 0.0 0.00 0.00 0.00 77 1012.5
20260508024013 7 270 0.0 0.0 0.00 0.00 0.00 75 1012.6
20260508023017 7 270 0.0 0.0 0.00 0.00 0.00 75 1012.5
20260508022014 7 270 0.0 0.0 0.00 0.00 0.00 72 1012.5
20260508020012 7 270 0.0 0.0 0.00 0.00 0.00 64 1012.8
20260508015016 7 270 0.0 0.0 0.00 0.00 0.00 57 1012.5
20260508013018 8 270 0.0 0.0 0.00 0.00 0.00 47 1012.4
20260508010024 11 270 0.0 12.9 0.00 0.00 0.00 51 1012.3
20260508005021 11 270 3.2 12.9 0.00 0.00 0.00 45 1012.4
20260508003016 11 293 0.0 9.7 0.00 0.00 0.00 43 1012.5
20260508002012 12 270 0.0 3.2 0.00 0.00 0.00 41 1012.4
20260507234013 12 270 0.0 4.8 0.00 0.00 0.00 39 1012.1
20260507233013 13 248 0.0 3.2 0.00 0.00 0.00 40 1012.0
20260507232012 13 293 0.0 4.8 0.00 0.00 0.00 38 1012.0